This is the latest recevied weather packets stored in our database for station/object SQ5DN-4. If no packets are shown the sender has not sent any weather packets the latest 10 day(s).
| Time | Temp. | Humidity | Pressure | Rain* | Wind** | Luminosity | Snow |
|---|---|---|---|---|---|---|---|
| 1777996592 | 25.56° C | 30% | 1002 hPa | - | - | - | - |
| 1777996052 | 26.11° C | 28% | 1002 hPa | - | - | - | - |
| 1777995476 | 26.67° C | 28% | 1002 hPa | - | - | - | - |
| 1777994878 | 26.67° C | 27% | 1002 hPa | - | - | - | - |
| 1777994376 | 26.67° C | 26% | 1002 hPa | - | - | - | - |
| 1777993865 | 26.67° C | 26% | 1002 hPa | - | - | - | - |
| 1777993327 | 26.67° C | 26% | 1002 hPa | - | - | - | - |
| 1777992807 | 27.22° C | 28% | 1002 hPa | - | - | - | - |
| 1777992276 | 27.78° C | 29% | 1002 hPa | - | - | - | - |
| 1777991755 | 27.78° C | 29% | 1002 hPa | - | - | - | - |
| 1777991227 | 27.22° C | 28% | 1003 hPa | - | - | - | - |
| 1777990696 | 27.78° C | 30% | 1003 hPa | - | - | - | - |
| 1777989687 | 27.22° C | 29% | 1003 hPa | - | - | - | - |
| 1777989156 | 27.22° C | 30% | 1003 hPa | - | - | - | - |
| 1777988596 | 26.67° C | 30% | 1003 hPa | - | - | - | - |
| 1777988032 | 26.67° C | 30% | 1003 hPa | - | - | - | - |
| 1777987436 | 26.67° C | 30% | 1003 hPa | - | - | - | - |
| 1777986942 | 26.67° C | 31% | 1003 hPa | - | - | - | - |
| 1777986392 | 26.67° C | 31% | 1003 hPa | - | - | - | - |
| 1777985893 | 27.22° C | 30% | 1003 hPa | - | - | - | - |
| 1777985296 | 27.78° C | 30% | 1003 hPa | - | - | - | - |
| 1777984722 | 28.33° C | 28% | 1003 hPa | - | - | - | - |
| 1777984162 | 27.78° C | 31% | 1003 hPa | - | - | - | - |
| 1777983682 | 27.78° C | 31% | 1003 hPa | - | - | - | - |
| 1777983112 | 27.22° C | 32% | 1004 hPa | - | - | - | - |
* Rain since midnight (hover to see other rain measurements)
** Current wind speed in m/s (hover to see current wind gust speed)